sat.trackr.live / text

‹ back to catalog

STARLINK-36610

NORAD 67637 · 2026-020W

PAYLOAD ACTIVE UNKNOWN

§ Identity

Operator
Country
US
Launch date
2026-01-30
Launch site
AFETR
Launch vehicle
Mass (kg)
RCS (m²)

Purposes: comms

External: N2YO · Heavens-Above · Gunter

§ Orbital elements

Epoch: 2026-05-25T02:54:32.361696Z

Period
94.27 min
Inclination
43.0030°
Eccentricity
0.0001722
Mean motion
15.27591911 rev/d
Perigee alt
481.8 km
Apogee alt
484.2 km
Semi-major
6,861.2 km
B*
7.5360e-4
RAAN
68.0589°
Arg perigee
272.3205°
Mean anomaly
87.7449°
Rev number
1,780

§ Raw data

STARLINK-366101 67637U 26020W   26145.12120789  .00020541  00000+0  75360-3 0  99922 67637  43.0030  68.0589 0001722 272.3205  87.7449 15.27591911 17806

JSON: /api/v1/satellites/67637 · /tle

For live sub-satellite position, see the globe view (requires WebGL).

§ Visibility from observer

Set your observer location to see the next 7 days of passes ≥ 10°. The values pass through the URL so the page stays shareable.

No JS? Fill the form by hand. The geolocation button needs JavaScript.